| time (UTC) | temp F | wind direction | speed knots | gust knots | rain 1hr in | rain 24hr in | rain mn in | humidity % | barometer mb |
| 20260509211501 | 55 | 148 | 2.6 | 8.7 | 0.00 | 0.00 | 0.00 | 73 | 993.5 |
| 20260509210107 | 56 | 171 | 0.0 | 2.6 | 0.00 | 0.00 | 0.00 | 65 | 992.8 |
| 20260509204555 | 55 | 144 | 0.0 | 1.7 | 0.00 | 0.00 | 0.00 | 65 | 992.1 |
| 20260509203102 | 54 | 126 | 0.0 | 0.9 | 0.00 | 0.00 | 0.00 | 65 | 991.7 |
| 20260509201552 | 54 | 247 | 0.0 | 1.7 | 0.00 | 0.00 | 0.00 | 61 | 991.6 |
| 20260509200054 | 52 | 278 | 0.0 | 0.9 | 0.00 | 0.00 | 0.00 | 64 | 991.1 |
| 20260509194552 | 55 | 279 | 0.0 | 0.9 | 0.00 | 0.00 | 0.00 | 59 | 990.8 |
| 20260509193056 | 57 | 279 | 0.0 | 0.9 | 0.00 | 0.00 | 0.00 | 54 | 990.6 |
| 20260509191600 | 59 | 308 | 0.9 | 4.3 | 0.00 | 0.00 | 0.00 | 51 | 990.4 |
| 20260509190054 | 59 | 313 | 3.5 | 8.7 | 0.00 | 0.00 | 0.00 | 52 | 990.1 |
| 20260509184558 | 58 | 346 | 2.6 | 6.1 | 0.00 | 0.00 | 0.00 | 54 | 989.9 |
| 20260509183056 | 58 | 321 | 2.6 | 6.1 | 0.00 | 0.00 | 0.00 | 54 | 989.8 |
| 20260509181547 | 58 | 347 | 4.3 | 7.8 | 0.00 | 0.00 | 0.00 | 53 | 989.6 |
| 20260509180046 | 59 | 346 | 5.2 | 9.6 | 0.00 | 0.00 | 0.00 | 51 | 989.4 |
| 20260509174600 | 60 | 347 | 4.3 | 12.2 | 0.00 | 0.00 | 0.00 | 50 | 989.4 |
| 20260509173050 | 59 | 345 | 3.5 | 7.8 | 0.00 | 0.00 | 0.00 | 51 | 989.2 |
| 20260509171544 | 60 | 310 | 4.3 | 10.4 | 0.00 | 0.00 | 0.00 | 48 | 989.1 |
| 20260509170042 | 60 | 313 | 7.0 | 11.3 | 0.00 | 0.00 | 0.00 | 48 | 988.9 |
| 20260509164538 | 57 | 344 | 4.3 | 8.7 | 0.00 | 0.00 | 0.00 | 53 | 989.0 |
| 20260509163040 | 55 | 360 | 2.6 | 4.3 | 0.00 | 0.00 | 0.00 | 60 | 989.0 |
| 20260509161535 | 55 | 358 | 2.6 | 4.3 | 0.00 | 0.00 | 0.00 | 61 | 988.8 |
| 20260509160034 | 56 | 6 | 2.6 | 6.1 | 0.00 | 0.00 | 0.00 | 59 | 989.1 |
| 20260509154533 | 57 | 341 | 4.3 | 11.3 | 0.00 | 0.00 | 0.00 | 56 | 989.0 |
| 20260509153043 | 57 | 347 | 6.1 | 10.4 | 0.00 | 0.00 | 0.00 | 57 | 989.1 |
| 20260509151529 | 56 | 317 | 3.5 | 9.6 | 0.00 | 0.00 | 0.00 | 59 | 989.2 |
| 20260509150026 | 56 | 351 | 6.1 | 9.6 | 0.00 | 0.00 | 0.00 | 59 | 989.4 |
| 20260509144530 | 55 | 342 | 4.3 | 8.7 | 0.00 | 0.00 | 0.00 | 61 | 989.4 |
| 20260509143022 | 56 | 329 | 4.3 | 13.0 | 0.00 | 0.00 | 0.00 | 59 | 989.6 |
| 20260509141518 | 55 | 349 | 6.1 | 11.3 | 0.00 | 0.00 | 0.00 | 61 | 990.0 |
| 20260509140015 | 54 | 13 | 3.5 | 7.8 | 0.00 | 0.00 | 0.00 | 63 | 990.4 |
| 20260509134513 | 53 | 354 | 4.3 | 7.8 | 0.00 | 0.00 | 0.00 | 64 | 990.3 |
| 20260509133012 | 53 | 3 | 3.5 | 7.0 | 0.00 | 0.00 | 0.00 | 64 | 990.7 |
| 20260509131513 | 53 | 18 | 2.6 | 6.1 | 0.00 | 0.00 | 0.00 | 63 | 990.6 |
| 20260509130022 | 52 | 358 | 1.7 | 3.5 | 0.00 | 0.00 | 0.00 | 66 | 990.7 |
| 20260509124508 | 52 | 343 | 1.7 | 4.3 | 0.00 | 0.00 | 0.00 | 64 | 991.0 |
| 20260509123005 | 54 | 12 | 1.7 | 5.2 | 0.00 | 0.00 | 0.00 | 61 | 991.2 |
| 20260509121505 | 54 | 344 | 2.6 | 7.0 | 0.00 | 0.00 | 0.00 | 60 | 991.4 |
| 20260509120100 | 53 | 8 | 3.5 | 7.0 | 0.00 | 0.00 | 0.00 | 65 | 991.6 |
| 20260509114603 | 50 | 19 | 1.7 | 3.5 | 0.00 | 0.00 | 0.00 | 68 | 991.5 |
| 20260509113059 | 53 | 33 | 1.7 | 2.6 | 0.00 | 0.00 | 0.00 | 59 | 991.7 |
| 20260509111552 | 52 | 331 | 0.9 | 2.6 | 0.00 | 0.00 | 0.00 | 61 | 991.7 |
| 20260509110050 | 52 | 340 | 0.9 | 2.6 | 0.00 | 0.00 | 0.00 | 61 | 991.7 |
| 20260509104551 | 53 | 328 | 1.7 | 3.5 | 0.00 | 0.00 | 0.00 | 59 | 991.8 |
| 20260509103059 | 53 | 338 | 0.9 | 3.5 | 0.00 | 0.00 | 0.00 | 59 | 991.6 |
| 20260509101600 | 54 | 325 | 1.7 | 7.0 | 0.00 | 0.00 | 0.00 | 59 | 991.5 |
| 20260509100047 | 53 | 13 | 2.6 | 6.1 | 0.00 | 0.00 | 0.00 | 60 | 991.5 |
| 20260509094556 | 53 | 337 | 1.7 | 5.2 | 0.00 | 0.00 | 0.00 | 58 | 991.3 |
| 20260509093049 | 54 | 333 | 2.6 | 5.2 | 0.00 | 0.00 | 0.00 | 57 | 991.3 |
| 20260509091548 | 54 | 345 | 2.6 | 4.3 | 0.00 | 0.00 | 0.00 | 58 | 991.2 |
| 20260509090057 | 54 | 346 | 1.7 | 7.0 | 0.00 | 0.01 | 0.00 | 59 | 991.1 |
| 20260509084548 | 54 | 349 | 2.6 | 5.2 | 0.00 | 0.01 | 0.00 | 59 | 991.1 |
| 20260509083054 | 54 | 20 | 2.6 | 4.3 | 0.00 | 0.01 | 0.00 | 58 | 990.9 |
| 20260509081543 | 55 | 348 | 1.7 | 4.3 | 0.00 | 0.01 | 0.00 | 57 | 990.9 |
| 20260509080046 | 55 | 330 | 2.6 | 6.1 | 0.00 | 0.01 | 0.00 | 58 | 991.0 |
| 20260509074546 | 55 | 360 | 4.3 | 7.8 | 0.00 | 0.01 | 0.00 | 58 | 990.7 |
| 20260509073042 | 55 | 350 | 2.6 | 7.8 | 0.00 | 0.01 | 0.00 | 58 | 990.6 |
| 20260509071544 | 56 | 12 | 5.2 | 10.4 | 0.00 | 0.01 | 0.00 | 57 | 990.2 |
| 20260509070042 | 54 | 334 | 4.3 | 9.6 | 0.00 | 0.01 | 0.00 | 57 | 989.8 |
| 20260509064539 | 54 | 336 | 0.9 | 4.3 | 0.00 | 0.01 | 0.00 | 59 | 989.8 |
| 20260509063038 | 51 | 9 | 0.0 | 0.9 | 0.00 | 0.01 | 0.00 | 65 | 989.8 |
| 20260509061537 | 54 | 10 | 0.0 | 3.5 | 0.00 | 0.01 | 0.00 | 60 | 989.6 |
| 20260509060040 | 55 | 356 | 1.7 | 5.2 | 0.00 | 0.02 | 0.00 | 59 | 989.5 |
| 20260509054535 | 55 | 347 | 2.6 | 5.2 | 0.00 | 0.02 | 0.00 | 60 | 989.5 |
| 20260509053056 | 55 | 355 | 2.6 | 5.2 | 0.00 | 0.02 | 0.00 | 62 | 989.4 |
| 20260509051541 | 56 | 333 | 1.7 | 7.0 | 0.00 | 0.02 | 0.00 | 61 | 989.5 |
| 20260509050032 | 58 | 64 | 1.7 | 4.3 | 0.00 | 0.12 | 0.00 | 60 | 989.6 |
| 20260509044532 | 60 | 358 | 0.9 | 5.2 | 0.00 | 0.12 | 0.00 | 61 | 989.5 |
| 20260509043031 | 61 | 43 | 0.9 | 7.0 | 0.00 | 0.12 | 0.00 | 64 | 989.4 |
| 20260509041529 | 61 | 335 | 0.9 | 4.3 | 0.00 | 0.12 | 0.00 | 74 | 989.7 |
| 20260509040031 | 62 | 61 | 0.9 | 3.5 | 0.00 | 0.17 | 0.00 | 73 | 989.7 |
| 20260509034530 | 62 | 155 | 0.0 | 3.5 | 0.00 | 0.17 | 0.00 | 74 | 989.7 |
| 20260509033026 | 62 | 42 | 0.9 | 4.3 | 0.00 | 0.17 | 0.00 | 74 | 989.7 |
| 20260509031530 | 61 | 98 | 2.6 | 7.0 | 0.00 | 0.17 | 0.00 | 74 | 989.8 |
| 20260509030040 | 61 | 149 | 1.7 | 9.6 | 0.00 | 0.20 | 0.00 | 75 | 989.8 |
| 20260509024520 | 61 | 85 | 3.5 | 7.0 | 0.00 | 0.20 | 0.00 | 73 | 989.8 |
| 20260509023022 | 61 | 20 | 2.6 | 8.7 | 0.00 | 0.20 | 0.00 | 74 | 989.9 |
| 20260509021526 | 60 | 60 | 3.5 | 8.7 | 0.00 | 0.20 | 0.00 | 75 | 989.8 |
| 20260509020017 | 61 | 107 | 4.3 | 9.6 | 0.00 | 0.20 | 0.00 | 75 | 989.6 |
| 20260509014516 | 61 | 69 | 2.6 | 6.1 | 0.00 | 0.20 | 0.00 | 75 | 989.9 |
| 20260509013015 | 60 | 71 | 0.9 | 6.1 | 0.00 | 0.20 | 0.00 | 75 | 990.4 |
| 20260509011514 | 59 | 63 | 0.9 | 5.2 | 0.00 | 0.20 | 0.00 | 78 | 990.7 |
| 20260509010012 | 59 | 22 | 0.0 | 0.0 | 0.00 | 0.20 | 0.00 | 76 | 990.9 |
| 20260509004522 | 59 | 354 | 0.0 | 3.5 | 0.00 | 0.20 | 0.00 | 76 | 991.1 |
| 20260509003013 | 57 | 55 | 0.0 | 0.9 | 0.00 | 0.20 | 0.00 | 79 | 991.4 |
| 20260509001513 | 59 | 72 | 2.6 | 4.3 | 0.00 | 0.20 | 0.00 | 77 | 991.6 |
| 20260509000010 | 59 | 131 | 0.9 | 1.7 | 0.00 | 0.20 | 0.00 | 78 | 991.8 |
| 20260508234514 | 59 | 75 | 0.0 | 4.3 | 0.00 | 0.20 | 0.00 | 78 | 991.8 |
| 20260508233010 | 58 | 139 | 0.9 | 2.6 | 0.00 | 0.20 | 0.00 | 81 | 992.0 |
| 20260508231509 | 57 | 17 | 0.0 | 0.0 | 0.00 | 0.20 | 0.00 | 81 | 992.1 |
| 20260508230008 | 56 | 178 | 0.0 | 1.7 | 0.00 | 0.20 | 0.00 | 83 | 992.3 |
| 20260508224508 | 55 | 202 | 0.0 | 2.6 | 0.00 | 0.20 | 0.00 | 85 | 992.2 |
| 20260508223011 | 55 | 230 | 0.9 | 3.5 | 0.00 | 0.20 | 0.00 | 86 | 992.0 |
| 20260508221506 | 55 | 159 | 0.0 | 0.0 | 0.00 | 0.20 | 0.00 | 87 | 992.2 |
| 20260508220007 | 54 | 309 | 0.0 | 0.0 | 0.00 | 0.20 | 0.00 | 91 | 992.3 |
| 20260508214506 | 53 | 326 | 0.0 | 0.0 | 0.00 | 0.20 | 0.00 | 93 | 992.5 |
| 20260508213006 | 53 | 352 | 0.0 | 0.0 | 0.00 | 0.20 | 0.00 | 94 | 992.1 |